| time (UTC) | temp C | wind direction | speed KPH | gust KPH | rain 1hr cm | rain 24hr cm | rain mn cm | humidity % | barometer mb |
| 20260505011548 | 10 | 246 | 4.8 | 33.8 | 0.00 | 0.79 | 0.69 | 67 | 1010.8 |
| 20260505010044 | 11 | 246 | 9.7 | 30.6 | 0.00 | 0.79 | 0.69 | 65 | 1010.7 |
| 20260505004543 | 11 | 246 | 8.0 | 24.1 | 0.03 | 0.84 | 0.69 | 64 | 1010.4 |
| 20260505003037 | 11 | 246 | 8.0 | 30.6 | 0.03 | 0.84 | 0.69 | 63 | 1010.3 |
| 20260505001537 | 11 | 246 | 11.3 | 25.7 | 0.03 | 0.84 | 0.69 | 63 | 1009.9 |
| 20260505000045 | 11 | 246 | 6.4 | 30.6 | 0.03 | 0.84 | 0.69 | 61 | 1009.5 |
| 20260504234540 | 12 | 246 | 12.9 | 29.0 | 0.00 | 0.89 | 0.66 | 60 | 1009.4 |
| 20260504233053 | 12 | 246 | 8.0 | 24.1 | 0.00 | 0.89 | 0.66 | 60 | 1009.3 |
| 20260504231537 | 12 | 246 | 9.7 | 24.1 | 0.00 | 0.89 | 0.66 | 60 | 1008.7 |
| 20260504230037 | 12 | 246 | 8.0 | 25.7 | 0.00 | 0.89 | 0.66 | 60 | 1008.6 |
| 20260504224543 | 12 | 246 | 8.0 | 25.7 | 0.00 | 0.97 | 0.66 | 60 | 1008.6 |
| 20260504223041 | 12 | 246 | 8.0 | 19.3 | 0.00 | 0.97 | 0.66 | 61 | 1008.7 |
| 20260504221545 | 13 | 246 | 6.4 | 24.1 | 0.03 | 0.97 | 0.66 | 60 | 1008.6 |
| 20260504220051 | 13 | 246 | 12.9 | 40.2 | 0.03 | 0.97 | 0.66 | 58 | 1008.7 |
| 20260504214537 | 13 | 246 | 3.2 | 27.4 | 0.03 | 1.04 | 0.66 | 57 | 1008.7 |
| 20260504213038 | 14 | 246 | 11.3 | 35.4 | 0.03 | 1.04 | 0.66 | 53 | 1008.9 |
| 20260504211538 | 15 | 246 | 16.1 | 29.0 | 0.00 | 1.02 | 0.64 | 49 | 1008.7 |
| 20260504210038 | 16 | 246 | 17.7 | 35.4 | 0.00 | 1.02 | 0.64 | 48 | 1008.4 |
| 20260504204553 | 16 | 246 | 8.0 | 24.1 | 0.00 | 1.09 | 0.64 | 53 | 1008.0 |
| 20260504203037 | 16 | 246 | 11.3 | 46.7 | 0.03 | 1.09 | 0.64 | 49 | 1007.8 |
| 20260504201537 | 16 | 246 | 14.5 | 35.4 | 0.03 | 1.09 | 0.64 | 46 | 1007.7 |
| 20260504200043 | 16 | 246 | 16.1 | 37.0 | 0.03 | 1.09 | 0.64 | 48 | 1007.7 |
| 20260504194542 | 16 | 246 | 16.1 | 41.8 | 0.03 | 1.17 | 0.64 | 48 | 1007.8 |
| 20260504193037 | 16 | 246 | 14.5 | 37.0 | 0.03 | 1.14 | 0.61 | 50 | 1007.6 |
| 20260504191540 | 16 | 246 | 17.7 | 43.5 | 0.03 | 1.14 | 0.61 | 49 | 1007.7 |
| 20260504190039 | 16 | 246 | 14.5 | 35.4 | 0.03 | 1.14 | 0.61 | 52 | 1007.5 |
| 20260504184538 | 16 | 246 | 12.9 | 35.4 | 0.03 | 1.22 | 0.61 | 50 | 1007.4 |
| 20260504183037 | 16 | 246 | 11.3 | 32.2 | 0.03 | 1.19 | 0.58 | 51 | 1007.3 |
| 20260504181542 | 16 | 246 | 11.3 | 33.8 | 0.03 | 1.19 | 0.58 | 48 | 1007.1 |
| 20260504180037 | 16 | 246 | 12.9 | 37.0 | 0.03 | 1.19 | 0.58 | 45 | 1007.4 |
| 20260504174538 | 16 | 246 | 16.1 | 33.8 | 0.05 | 1.27 | 0.58 | 45 | 1007.6 |
| 20260504173037 | 16 | 246 | 16.1 | 33.8 | 0.03 | 1.24 | 0.56 | 42 | 1007.5 |
| 20260504171538 | 16 | 246 | 19.3 | 33.8 | 0.03 | 1.24 | 0.56 | 38 | 1007.4 |
| 20260504081548 | 5 | 246 | 11.3 | 29.0 | 0.05 | 1.22 | 0.25 | 91 | 1002.7 |
| 20260504044535 | 5 | 246 | 11.3 | 25.7 | 0.05 | 1.07 | 0.10 | 95 | 999.2 |
| 20260504043041 | 4 | 246 | 12.9 | 30.6 | 0.05 | 1.04 | 0.08 | 95 | 999.2 |
| 20260504041535 | 4 | 246 | 8.0 | 25.7 | 0.05 | 1.04 | 0.08 | 95 | 999.0 |
| 20260504040040 | 3 | 246 | 9.7 | 24.1 | 0.05 | 1.02 | 0.05 | 95 | 998.7 |
| 20260504034537 | 3 | 246 | 9.7 | 30.6 | 0.05 | 1.02 | 0.05 | 94 | 998.5 |
| 20260504033039 | 3 | 246 | 8.0 | 27.4 | 0.05 | 0.99 | 0.03 | 94 | 998.4 |
| 20260504031535 | 3 | 246 | 14.5 | 38.6 | 0.05 | 0.99 | 0.03 | 94 | 998.1 |
| 20260504030041 | 3 | 246 | 11.3 | 25.7 | 0.05 | 0.97 | 0.00 | 94 | 997.9 |
| 20260504024539 | 3 | 246 | 12.9 | 33.8 | 0.05 | 0.97 | 0.97 | 94 | 997.7 |
| 20260504023038 | 3 | 246 | 16.1 | 35.4 | 0.05 | 0.94 | 0.94 | 94 | 997.5 |
| 20260504021537 | 3 | 246 | 11.3 | 35.4 | 0.05 | 0.94 | 0.94 | 94 | 997.2 |
| 20260504020057 | 3 | 246 | 11.3 | 32.2 | 0.05 | 0.91 | 0.91 | 94 | 996.9 |
| 20260504014553 | 2 | 246 | 11.3 | 27.4 | 0.05 | 0.91 | 0.91 | 94 | 996.6 |
| 20260504013053 | 2 | 246 | 11.3 | 38.6 | 0.05 | 0.89 | 0.89 | 94 | 996.1 |